| time (UTC) | temp F | wind direction | speed MPH | gust MPH | rain 1hr in | rain 24hr in | rain mn in | humidity % | barometer mb |
| 20260506175306 | 60 | 243 | 2.0 | 7.0 | 0.00 | 0.00 | 0.00 | 80 | 1020.2 |
| 20260506174306 | 59 | 227 | 3.0 | 5.0 | 0.00 | 0.00 | 0.00 | 79 | 1020.2 |
| 20260506173307 | 60 | 140 | 3.0 | 6.0 | 0.00 | 0.00 | 0.00 | 80 | 1020.0 |
| 20260506172307 | 59 | 155 | 3.0 | 5.0 | 0.00 | 0.00 | 0.00 | 81 | 1019.8 |
| 20260506171806 | 59 | 142 | 3.0 | 5.0 | 0.00 | 0.00 | 0.00 | 82 | 1019.9 |
| 20260506171306 | 58 | 191 | 3.0 | 5.0 | 0.00 | 0.00 | 0.00 | 82 | 1020.0 |
| 20260506170806 | 58 | 193 | 2.0 | 5.0 | 0.00 | 0.00 | 0.00 | 82 | 1020.0 |
| 20260506170306 | 58 | 179 | 3.0 | 7.0 | 0.00 | 0.00 | 0.00 | 83 | 1020.0 |
| 20260506165806 | 58 | 190 | 2.0 | 3.0 | 0.00 | 0.00 | 0.00 | 83 | 1020.1 |
| 20260506164806 | 58 | 198 | 2.0 | 5.0 | 0.00 | 0.00 | 0.00 | 83 | 1019.9 |
| 20260506164306 | 58 | 203 | 3.0 | 6.0 | 0.00 | 0.00 | 0.00 | 83 | 1019.9 |
| 20260506163807 | 58 | 195 | 2.0 | 3.0 | 0.00 | 0.00 | 0.00 | 83 | 1019.9 |
| 20260506163306 | 58 | 198 | 2.0 | 6.0 | 0.00 | 0.00 | 0.00 | 83 | 1019.9 |
| 20260506162806 | 58 | 200 | 1.0 | 5.0 | 0.00 | 0.00 | 0.00 | 84 | 1019.9 |
| 20260506162307 | 58 | 209 | 1.0 | 6.0 | 0.00 | 0.00 | 0.00 | 83 | 1019.8 |
| 20260506161806 | 58 | 175 | 3.0 | 5.0 | 0.00 | 0.00 | 0.00 | 83 | 1019.8 |
| 20260506161306 | 58 | 168 | 3.0 | 7.0 | 0.00 | 0.00 | 0.00 | 84 | 1019.7 |
| 20260506160806 | 58 | 203 | 3.0 | 6.0 | 0.00 | 0.00 | 0.00 | 84 | 1019.7 |
| 20260506160306 | 57 | 200 | 2.0 | 5.0 | 0.00 | 0.00 | 0.00 | 85 | 1019.7 |
| 20260506155806 | 57 | 138 | 4.0 | 9.0 | 0.00 | 0.00 | 0.00 | 85 | 1019.5 |
| 20260506154806 | 57 | 189 | 3.0 | 10.0 | 0.00 | 0.00 | 0.00 | 85 | 1019.2 |
| 20260506154305 | 57 | 145 | 5.0 | 10.0 | 0.00 | 0.00 | 0.00 | 86 | 1019.0 |
| 20260506153806 | 57 | 183 | 1.0 | 6.0 | 0.00 | 0.00 | 0.00 | 86 | 1019.3 |
| 20260506153306 | 56 | 139 | 3.0 | 8.0 | 0.00 | 0.00 | 0.00 | 87 | 1019.6 |
| 20260506152806 | 56 | 148 | 2.0 | 3.0 | 0.00 | 0.00 | 0.00 | 87 | 1019.8 |
| 20260506152306 | 56 | 142 | 2.0 | 5.0 | 0.00 | 0.00 | 0.00 | 87 | 1019.8 |
| 20260506151806 | 56 | 172 | 3.0 | 5.0 | 0.00 | 0.00 | 0.00 | 86 | 1019.9 |
| 20260506151306 | 56 | 187 | 1.0 | 3.0 | 0.00 | 0.00 | 0.00 | 87 | 1020.0 |
| 20260506150806 | 56 | 187 | 2.0 | 3.0 | 0.00 | 0.00 | 0.00 | 87 | 1019.9 |
| 20260506150306 | 56 | 191 | 1.0 | 3.0 | 0.00 | 0.00 | 0.00 | 87 | 1019.9 |
| 20260506145806 | 56 | 191 | 2.0 | 3.0 | 0.00 | 0.00 | 0.00 | 86 | 1019.8 |
| 20260506145306 | 56 | 231 | 2.0 | 3.0 | 0.00 | 0.00 | 0.00 | 87 | 1019.8 |
| 20260506144806 | 56 | 226 | 1.0 | 5.0 | 0.00 | 0.00 | 0.00 | 87 | 1019.8 |
| 20260506144306 | 56 | 226 | 2.0 | 5.0 | 0.00 | 0.00 | 0.00 | 86 | 1019.8 |
| 20260506143806 | 56 | 242 | 2.0 | 3.0 | 0.00 | 0.00 | 0.00 | 86 | 1019.7 |
| 20260506143306 | 56 | 138 | 0.0 | 2.0 | 0.00 | 0.00 | 0.00 | 87 | 1019.5 |
| 20260506142806 | 56 | 138 | 0.0 | 3.0 | 0.00 | 0.00 | 0.00 | 87 | 1019.4 |
| 20260506141306 | 56 | 148 | 3.0 | 5.0 | 0.00 | 0.00 | 0.00 | 87 | 1019.0 |
| 20260506140806 | 56 | 180 | 1.0 | 3.0 | 0.00 | 0.00 | 0.00 | 87 | 1019.0 |
| 20260506140306 | 56 | 195 | 1.0 | 5.0 | 0.00 | 0.00 | 0.00 | 87 | 1018.9 |
| 20260506135806 | 56 | 147 | 2.0 | 3.0 | 0.00 | 0.00 | 0.00 | 87 | 1019.0 |
| 20260506135306 | 56 | 148 | 2.0 | 5.0 | 0.00 | 0.00 | 0.00 | 87 | 1019.0 |
| 20260506134806 | 56 | 145 | 2.0 | 5.0 | 0.00 | 0.00 | 0.00 | 87 | 1019.0 |
| 20260506133305 | 56 | 146 | 1.0 | 3.0 | 0.00 | 0.00 | 0.00 | 87 | 1018.8 |
| 20260506132805 | 56 | 147 | 2.0 | 5.0 | 0.00 | 0.00 | 0.00 | 87 | 1018.7 |
| 20260506132307 | 57 | 140 | 2.0 | 5.0 | 0.00 | 0.00 | 0.00 | 87 | 1018.7 |
| 20260506131306 | 57 | 148 | 3.0 | 7.0 | 0.00 | 0.00 | 0.00 | 87 | 1018.5 |
| 20260506130806 | 57 | 151 | 3.0 | 7.0 | 0.00 | 0.00 | 0.00 | 87 | 1018.5 |
| 20260506130306 | 57 | 135 | 2.0 | 3.0 | 0.00 | 0.00 | 0.00 | 86 | 1018.6 |
| 20260506125806 | 57 | 132 | 1.0 | 2.0 | 0.00 | 0.00 | 0.00 | 86 | 1018.6 |
| 20260506125306 | 57 | 132 | 2.0 | 3.0 | 0.00 | 0.00 | 0.00 | 86 | 1018.6 |
| 20260506124806 | 57 | 144 | 2.0 | 3.0 | 0.00 | 0.00 | 0.00 | 86 | 1018.4 |
| 20260506123806 | 57 | 134 | 1.0 | 3.0 | 0.00 | 0.00 | 0.00 | 85 | 1018.4 |
| 20260506123306 | 57 | 129 | 2.0 | 3.0 | 0.00 | 0.00 | 0.00 | 84 | 1018.4 |
| 20260506122806 | 58 | 118 | 1.0 | 2.0 | 0.00 | 0.00 | 0.00 | 84 | 1018.4 |
| 20260506122306 | 58 | 119 | 1.0 | 2.0 | 0.00 | 0.00 | 0.00 | 84 | 1018.5 |
| 20260506121806 | 58 | 119 | 0.0 | 2.0 | 0.00 | 0.00 | 0.00 | 84 | 1018.6 |
| 20260506121305 | 58 | 119 | 1.0 | 3.0 | 0.00 | 0.00 | 0.00 | 84 | 1018.5 |
| 20260506120806 | 58 | 119 | 1.0 | 3.0 | 0.00 | 0.00 | 0.00 | 84 | 1018.4 |
| 20260506120305 | 58 | 36 | 1.0 | 2.0 | 0.00 | 0.00 | 0.00 | 84 | 1018.4 |
| 20260506115806 | 58 | 36 | 1.0 | 2.0 | 0.00 | 0.00 | 0.00 | 84 | 1018.4 |
| 20260506115307 | 58 | 36 | 0.0 | 1.0 | 0.00 | 0.00 | 0.00 | 84 | 1018.3 |
| 20260506114806 | 58 | 36 | 0.0 | 2.0 | 0.00 | 0.00 | 0.00 | 84 | 1018.2 |
| 20260506114306 | 58 | 34 | 1.0 | 1.0 | 0.00 | 0.00 | 0.00 | 84 | 1018.2 |
| 20260506113805 | 58 | 34 | 0.0 | 1.0 | 0.00 | 0.00 | 0.00 | 84 | 1018.0 |
| 20260506113305 | 58 | 34 | 0.0 | 1.0 | 0.00 | 0.00 | 0.00 | 84 | 1018.0 |
| 20260506112806 | 58 | 34 | 0.0 | 0.0 | 0.00 | 0.00 | 0.00 | 84 | 1018.0 |
| 20260506112306 | 58 | 34 | 0.0 | 0.0 | 0.00 | 0.00 | 0.00 | 84 | 1018.0 |
| 20260506111805 | 58 | 34 | 0.0 | 0.0 | 0.00 | 0.00 | 0.00 | 84 | 1017.9 |
| 20260506111305 | 58 | 34 | 0.0 | 1.0 | 0.00 | 0.00 | 0.00 | 84 | 1017.8 |
| 20260506110806 | 58 | 34 | 1.0 | 2.0 | 0.00 | 0.00 | 0.00 | 84 | 1017.8 |
| 20260506110306 | 58 | 100 | 1.0 | 2.0 | 0.00 | 0.00 | 0.00 | 84 | 1017.7 |
| 20260506105805 | 58 | 98 | 0.0 | 2.0 | 0.00 | 0.00 | 0.00 | 84 | 1017.6 |
| 20260506105305 | 58 | 98 | 0.0 | 2.0 | 0.00 | 0.00 | 0.00 | 84 | 1017.6 |
| 20260506104305 | 58 | 98 | 0.0 | 2.0 | 0.00 | 0.00 | 0.00 | 84 | 1017.4 |
| 20260506103306 | 58 | 98 | 0.0 | 1.0 | 0.00 | 0.00 | 0.00 | 84 | 1017.3 |
| 20260506102805 | 58 | 98 | 0.0 | 2.0 | 0.00 | 0.00 | 0.00 | 84 | 1017.3 |
| 20260506102306 | 58 | 99 | 0.0 | 2.0 | 0.00 | 0.00 | 0.00 | 84 | 1017.1 |
| 20260506101805 | 58 | 74 | 1.0 | 2.0 | 0.00 | 0.00 | 0.00 | 84 | 1017.1 |
| 20260506101305 | 58 | 74 | 1.0 | 2.0 | 0.00 | 0.00 | 0.00 | 84 | 1017.1 |
| 20260506100805 | 58 | 74 | 1.0 | 2.0 | 0.00 | 0.00 | 0.00 | 84 | 1017.1 |
| 20260506100305 | 58 | 74 | 0.0 | 2.0 | 0.00 | 0.00 | 0.00 | 84 | 1017.0 |
| 20260506095806 | 58 | 74 | 1.0 | 2.0 | 0.00 | 0.00 | 0.00 | 84 | 1017.0 |
| 20260506094805 | 59 | 74 | 0.0 | 3.0 | 0.00 | 0.00 | 0.00 | 84 | 1016.9 |
| 20260506094306 | 59 | 112 | 1.0 | 5.0 | 0.00 | 0.00 | 0.00 | 84 | 1016.9 |
| 20260506093805 | 59 | 171 | 1.0 | 3.0 | 0.00 | 0.00 | 0.00 | 84 | 1016.8 |
| 20260506093305 | 59 | 175 | 1.0 | 3.0 | 0.00 | 0.00 | 0.00 | 85 | 1016.9 |
| 20260506092806 | 59 | 175 | 0.0 | 1.0 | 0.00 | 0.00 | 0.00 | 85 | 1016.8 |
| 20260506092306 | 59 | 175 | 1.0 | 2.0 | 0.00 | 0.00 | 0.00 | 85 | 1016.8 |
| 20260506091805 | 59 | 175 | 0.0 | 0.0 | 0.00 | 0.00 | 0.00 | 85 | 1016.8 |
| 20260506091305 | 59 | 175 | 0.0 | 1.0 | 0.00 | 0.00 | 0.00 | 85 | 1016.7 |
| 20260506085805 | 59 | 175 | 0.0 | 1.0 | 0.00 | 0.00 | 0.00 | 84 | 1016.7 |
| 20260506085306 | 60 | 175 | 0.0 | 2.0 | 0.00 | 0.00 | 0.00 | 84 | 1016.7 |
| 20260506084305 | 60 | 175 | 1.0 | 2.0 | 0.00 | 0.00 | 0.00 | 84 | 1016.7 |
| 20260506083805 | 60 | 175 | 1.0 | 2.0 | 0.00 | 0.00 | 0.00 | 84 | 1016.6 |
| 20260506082805 | 60 | 175 | 1.0 | 2.0 | 0.00 | 0.00 | 0.00 | 83 | 1016.6 |
| 20260506082305 | 60 | 175 | 1.0 | 2.0 | 0.00 | 0.00 | 0.00 | 84 | 1016.6 |
| 20260506080805 | 60 | 175 | 1.0 | 2.0 | 0.00 | 0.00 | 0.00 | 83 | 1016.6 |
| 20260506080305 | 60 | 175 | 0.0 | 1.0 | 0.00 | 0.00 | 0.00 | 83 | 1016.5 |
| 20260506072805 | 60 | 175 | 0.0 | 0.0 | 0.00 | 0.00 | 0.00 | 83 | 1016.2 |
| 20260506072306 | 60 | 175 | 0.0 | 0.0 | 0.00 | 0.00 | 0.00 | 83 | 1016.3 |
| 20260506071804 | 60 | 175 | 0.0 | 0.0 | 0.00 | 0.00 | 0.00 | 83 | 1016.3 |
| 20260506071306 | 60 | 175 | 0.0 | 0.0 | 0.00 | 0.00 | 0.00 | 83 | 1016.3 |
| 20260506070820 | 60 | 175 | 0.0 | 0.0 | 0.00 | 0.00 | 0.00 | 83 | 1016.3 |
| 20260506070305 | 60 | 175 | 0.0 | 0.0 | 0.00 | 0.00 | 0.00 | 83 | 1016.2 |
| 20260506061805 | 60 | 175 | 0.0 | 0.0 | 0.00 | 0.00 | 0.00 | 82 | 1016.0 |
| 20260506060805 | 60 | 175 | 0.0 | 0.0 | 0.00 | 0.00 | 0.00 | 82 | 1016.0 |
| 20260506051304 | 61 | 175 | 2.0 | 3.0 | 0.00 | 0.00 | 0.00 | 79 | 1015.7 |
| 20260506050304 | 61 | 153 | 2.0 | 3.0 | 0.00 | 0.00 | 0.00 | 79 | 1015.6 |
| 20260506044805 | 60 | 92 | 1.0 | 3.0 | 0.00 | 0.00 | 0.00 | 80 | 1015.5 |
| 20260506043305 | 60 | 88 | 1.0 | 1.0 | 0.00 | 0.00 | 0.00 | 83 | 1015.5 |
| 20260506042804 | 59 | 88 | 0.0 | 1.0 | 0.00 | 0.00 | 0.00 | 83 | 1015.4 |
| 20260506042305 | 59 | 88 | 1.0 | 2.0 | 0.00 | 0.00 | 0.00 | 83 | 1015.3 |
| 20260506041805 | 59 | 88 | 1.0 | 2.0 | 0.00 | 0.00 | 0.00 | 83 | 1015.3 |
| 20260506041305 | 59 | 88 | 1.0 | 2.0 | 0.00 | 0.00 | 0.00 | 82 | 1015.3 |
| 20260506040805 | 60 | 88 | 1.0 | 2.0 | 0.00 | 0.00 | 0.00 | 81 | 1015.1 |
| 20260506040305 | 60 | 88 | 1.0 | 2.0 | 0.00 | 0.00 | 0.00 | 81 | 1015.1 |
| 20260506035805 | 60 | 88 | 1.0 | 2.0 | 0.00 | 0.00 | 0.00 | 81 | 1015.1 |
| 20260506035306 | 60 | 88 | 1.0 | 2.0 | 0.00 | 0.00 | 0.00 | 80 | 1014.9 |
| 20260506034805 | 60 | 88 | 0.0 | 1.0 | 0.00 | 0.00 | 0.00 | 80 | 1014.8 |
| 20260506033805 | 61 | 88 | 0.0 | 1.0 | 0.00 | 0.00 | 0.00 | 79 | 1014.8 |
| 20260506033304 | 61 | 88 | 0.0 | 1.0 | 0.00 | 0.00 | 0.00 | 78 | 1014.7 |
| 20260506032804 | 61 | 88 | 1.0 | 1.0 | 0.00 | 0.00 | 0.00 | 77 | 1014.7 |
| 20260506032306 | 62 | 88 | 0.0 | 1.0 | 0.00 | 0.00 | 0.00 | 77 | 1014.6 |
| 20260506031805 | 62 | 88 | 0.0 | 0.0 | 0.00 | 0.00 | 0.00 | 76 | 1014.6 |
| 20260506030804 | 63 | 88 | 0.0 | 2.0 | 0.00 | 0.00 | 0.00 | 75 | 1014.5 |
| 20260506030305 | 63 | 88 | 1.0 | 2.0 | 0.00 | 0.00 | 0.00 | 73 | 1014.5 |
| 20260506025805 | 63 | 88 | 0.0 | 3.0 | 0.00 | 0.00 | 0.00 | 73 | 1014.4 |
| 20260506025306 | 63 | 88 | 1.0 | 3.0 | 0.00 | 0.00 | 0.00 | 73 | 1014.4 |
| 20260506024804 | 63 | 88 | 1.0 | 3.0 | 0.00 | 0.00 | 0.00 | 73 | 1014.4 |
| 20260506024305 | 64 | 142 | 1.0 | 3.0 | 0.00 | 0.00 | 0.00 | 73 | 1014.3 |
| 20260506023304 | 64 | 145 | 3.0 | 7.0 | 0.00 | 0.00 | 0.00 | 72 | 1014.3 |
| 20260506022306 | 64 | 144 | 2.0 | 7.0 | 0.00 | 0.00 | 0.00 | 72 | 1014.4 |
| 20260506021304 | 65 | 96 | 2.0 | 3.0 | 0.00 | 0.00 | 0.00 | 71 | 1014.4 |
| 20260506020807 | 64 | 131 | 3.0 | 7.0 | 0.00 | 0.00 | 0.00 | 71 | 1014.3 |
| 20260506020307 | 65 | 110 | 3.0 | 3.0 | 0.00 | 0.00 | 0.00 | 70 | 1014.3 |
| 20260506015807 | 66 | 81 | 1.0 | 6.0 | 0.00 | 0.00 | 0.00 | 68 | 1014.3 |
| 20260506014307 | 65 | 59 | 2.0 | 3.0 | 0.00 | 0.00 | 0.00 | 69 | 1014.3 |
| 20260506013807 | 65 | 38 | 3.0 | 6.0 | 0.00 | 0.00 | 0.00 | 69 | 1014.3 |
| 20260506012308 | 65 | 339 | 3.0 | 5.0 | 0.00 | 0.00 | 0.00 | 68 | 1014.3 |
| 20260506011807 | 65 | 336 | 2.0 | 3.0 | 0.00 | 0.00 | 0.00 | 69 | 1014.3 |
| 20260506011307 | 65 | 323 | 2.0 | 3.0 | 0.00 | 0.00 | 0.00 | 70 | 1014.3 |
| 20260506010307 | 65 | 14 | 3.0 | 7.0 | 0.00 | 0.00 | 0.00 | 69 | 1014.1 |
| 20260506005307 | 65 | 48 | 2.0 | 5.0 | 0.00 | 0.00 | 0.00 | 69 | 1014.2 |
| 20260506004807 | 64 | 78 | 2.0 | 3.0 | 0.00 | 0.00 | 0.00 | 70 | 1014.2 |
| 20260506004307 | 65 | 30 | 2.0 | 8.0 | 0.00 | 0.00 | 0.00 | 70 | 1014.3 |
| 20260506003807 | 64 | 338 | 2.0 | 5.0 | 0.00 | 0.00 | 0.00 | 70 | 1014.3 |
| 20260506003307 | 64 | 25 | 1.0 | 3.0 | 0.00 | 0.00 | 0.00 | 70 | 1014.3 |
| 20260506002807 | 64 | 358 | 3.0 | 6.0 | 0.00 | 0.00 | 0.00 | 71 | 1014.3 |
| 20260506002307 | 64 | 50 | 2.0 | 5.0 | 0.00 | 0.00 | 0.00 | 71 | 1014.3 |
| 20260506001306 | 64 | 59 | 1.0 | 3.0 | 0.00 | 0.00 | 0.00 | 72 | 1014.5 |
| 20260505235807 | 63 | 10 | 3.0 | 5.0 | 0.00 | 0.00 | 0.00 | 70 | 1014.6 |
| 20260505235307 | 64 | 355 | 0.0 | 2.0 | 0.00 | 0.00 | 0.00 | 72 | 1014.6 |
| 20260505234807 | 63 | 355 | 1.0 | 3.0 | 0.00 | 0.00 | 0.00 | 72 | 1014.6 |
| 20260505233807 | 64 | 347 | 3.0 | 5.0 | 0.00 | 0.00 | 0.00 | 71 | 1014.7 |
| 20260505233306 | 63 | 318 | 1.0 | 3.0 | 0.00 | 0.00 | 0.00 | 71 | 1014.7 |
| 20260505232807 | 63 | 41 | 2.0 | 3.0 | 0.00 | 0.00 | 0.00 | 71 | 1014.8 |
| 20260505232306 | 63 | 345 | 2.0 | 5.0 | 0.00 | 0.00 | 0.00 | 72 | 1014.7 |
| 20260505231807 | 63 | 355 | 3.0 | 6.0 | 0.00 | 0.00 | 0.00 | 71 | 1014.6 |
| 20260505231306 | 64 | 56 | 2.0 | 3.0 | 0.00 | 0.00 | 0.00 | 71 | 1014.6 |
| 20260505230806 | 64 | 157 | 2.0 | 3.0 | 0.00 | 0.00 | 0.00 | 71 | 1014.8 |
| 20260505230307 | 63 | 309 | 1.0 | 2.0 | 0.00 | 0.00 | 0.00 | 72 | 1014.8 |
| 20260505225807 | 63 | 312 | 2.0 | 3.0 | 0.00 | 0.00 | 0.00 | 72 | 1014.8 |
| 20260505225307 | 63 | 169 | 1.0 | 3.0 | 0.00 | 0.00 | 0.00 | 73 | 1014.9 |
| 20260505224807 | 62 | 211 | 1.0 | 3.0 | 0.00 | 0.00 | 0.00 | 73 | 1015.0 |
| 20260505224307 | 63 | 213 | 2.0 | 3.0 | 0.00 | 0.00 | 0.00 | 71 | 1015.1 |
| 20260505223307 | 62 | 263 | 2.0 | 3.0 | 0.00 | 0.00 | 0.00 | 73 | 1015.3 |
| 20260505222806 | 62 | 252 | 2.0 | 3.0 | 0.00 | 0.00 | 0.00 | 73 | 1015.2 |
| 20260505222307 | 62 | 235 | 2.0 | 5.0 | 0.00 | 0.00 | 0.00 | 73 | 1015.2 |
| 20260505221307 | 62 | 231 | 2.0 | 6.0 | 0.00 | 0.00 | 0.00 | 74 | 1015.3 |
| 20260505220807 | 62 | 322 | 2.0 | 5.0 | 0.00 | 0.00 | 0.00 | 73 | 1015.3 |
| 20260505220307 | 62 | 308 | 2.0 | 6.0 | 0.00 | 0.00 | 0.00 | 73 | 1015.3 |
| 20260505215807 | 62 | 300 | 3.0 | 7.0 | 0.00 | 0.00 | 0.00 | 73 | 1015.4 |
| 20260505215306 | 62 | 245 | 3.0 | 6.0 | 0.00 | 0.00 | 0.00 | 72 | 1015.4 |
| 20260505214807 | 62 | 251 | 1.0 | 6.0 | 0.00 | 0.00 | 0.00 | 73 | 1015.3 |
| 20260505214306 | 63 | 188 | 1.0 | 3.0 | 0.00 | 0.00 | 0.00 | 72 | 1015.4 |
| 20260505213806 | 62 | 338 | 2.0 | 5.0 | 0.00 | 0.00 | 0.00 | 73 | 1015.4 |
| 20260505212806 | 63 | 249 | 2.0 | 3.0 | 0.00 | 0.00 | 0.00 | 73 | 1015.4 |
| 20260505212307 | 62 | 53 | 1.0 | 3.0 | 0.00 | 0.00 | 0.00 | 72 | 1015.4 |
| 20260505211806 | 62 | 254 | 1.0 | 6.0 | 0.00 | 0.00 | 0.00 | 72 | 1015.5 |
| 20260505211307 | 62 | 246 | 2.0 | 7.0 | 0.00 | 0.00 | 0.00 | 72 | 1015.5 |
| 20260505210806 | 62 | 179 | 3.0 | 6.0 | 0.00 | 0.00 | 0.00 | 74 | 1015.5 |
| 20260505210307 | 62 | 247 | 2.0 | 3.0 | 0.00 | 0.00 | 0.00 | 73 | 1015.5 |
| 20260505205806 | 62 | 340 | 2.0 | 5.0 | 0.00 | 0.00 | 0.00 | 72 | 1015.5 |
| 20260505205307 | 62 | 277 | 3.0 | 8.0 | 0.00 | 0.00 | 0.00 | 73 | 1015.6 |
| 20260505204806 | 62 | 225 | 3.0 | 6.0 | 0.00 | 0.00 | 0.00 | 74 | 1015.6 |
| 20260505204306 | 62 | 259 | 3.0 | 7.0 | 0.00 | 0.00 | 0.00 | 74 | 1015.7 |
| 20260505203807 | 62 | 264 | 2.0 | 7.0 | 0.00 | 0.00 | 0.00 | 74 | 1015.6 |
| 20260505203307 | 62 | 259 | 2.0 | 7.0 | 0.00 | 0.00 | 0.00 | 74 | 1015.8 |
| 20260505202807 | 62 | 287 | 2.0 | 3.0 | 0.00 | 0.00 | 0.00 | 75 | 1015.8 |
| 20260505202307 | 61 | 227 | 3.0 | 5.0 | 0.00 | 0.00 | 0.00 | 75 | 1015.8 |
| 20260505201807 | 61 | 235 | 3.0 | 6.0 | 0.00 | 0.00 | 0.00 | 75 | 1015.9 |
| 20260505201307 | 61 | 263 | 3.0 | 7.0 | 0.00 | 0.00 | 0.00 | 74 | 1015.9 |
| 20260505200806 | 61 | 257 | 3.0 | 8.0 | 0.00 | 0.00 | 0.00 | 74 | 1015.8 |
| 20260505195306 | 61 | 195 | 3.0 | 6.0 | 0.00 | 0.00 | 0.00 | 74 | 1015.9 |
| 20260505194807 | 61 | 217 | 2.0 | 6.0 | 0.00 | 0.00 | 0.00 | 74 | 1015.9 |
| 20260505194307 | 61 | 274 | 4.0 | 7.0 | 0.00 | 0.00 | 0.00 | 74 | 1015.9 |
| 20260505193807 | 61 | 191 | 3.0 | 6.0 | 0.00 | 0.00 | 0.00 | 74 | 1015.8 |
| 20260505193307 | 61 | 259 | 3.0 | 6.0 | 0.00 | 0.00 | 0.00 | 72 | 1015.9 |
| 20260505192806 | 61 | 188 | 3.0 | 7.0 | 0.00 | 0.00 | 0.00 | 73 | 1015.9 |
| 20260505191806 | 61 | 283 | 2.0 | 7.0 | 0.00 | 0.00 | 0.00 | 74 | 1015.9 |
| 20260505191307 | 61 | 177 | 3.0 | 8.0 | 0.00 | 0.00 | 0.00 | 73 | 1015.9 |
| 20260505190806 | 61 | 197 | 2.0 | 3.0 | 0.00 | 0.00 | 0.00 | 75 | 1015.8 |
| 20260505190307 | 61 | 286 | 3.0 | 5.0 | 0.00 | 0.00 | 0.00 | 75 | 1015.8 |
| 20260505185806 | 61 | 213 | 2.0 | 3.0 | 0.00 | 0.00 | 0.00 | 75 | 1015.8 |
| 20260505185307 | 61 | 230 | 4.0 | 6.0 | 0.00 | 0.00 | 0.00 | 75 | 1015.8 |
| 20260505184806 | 61 | 205 | 3.0 | 5.0 | 0.00 | 0.00 | 0.00 | 74 | 1015.9 |
| 20260505184306 | 61 | 239 | 2.0 | 6.0 | 0.00 | 0.00 | 0.00 | 75 | 1015.9 |
| 20260505183806 | 61 | 257 | 2.0 | 3.0 | 0.00 | 0.00 | 0.00 | 75 | 1015.9 |
| 20260505182306 | 59 | 124 | 2.0 | 7.0 | 0.00 | 0.00 | 0.00 | 77 | 1015.9 |
| 20260505181306 | 59 | 232 | 2.0 | 7.0 | 0.00 | 0.00 | 0.00 | 78 | 1015.7 |
| 20260505180307 | 59 | 241 | 1.0 | 3.0 | 0.00 | 0.00 | 0.00 | 78 | 1015.9 |
| 20260505175806 | 59 | 268 | 3.0 | 5.0 | 0.00 | 0.00 | 0.00 | 79 | 1015.8 |